sat.trackr.live / text

‹ back to catalog

GEESAT-5 03

NORAD 65552 · 2025-201C

PAYLOAD ACTIVE UNKNOWN

§ Identity

Operator
Country
PRC
Launch date
2025-09-08
Launch site
YSLA
Launch vehicle
Mass (kg)
RCS (m²)

External: N2YO · Heavens-Above · Gunter

§ Orbital elements

Epoch: 2026-05-25T00:30:37.086048Z

Period
97.03 min
Inclination
49.9855°
Eccentricity
0.0010654
Mean motion
14.84082872 rev/d
Perigee alt
609.0 km
Apogee alt
623.9 km
Semi-major
6,994.6 km
B*
1.6747e-4
RAAN
146.8203°
Arg perigee
175.6989°
Mean anomaly
184.4042°
Rev number
3,835

§ Raw data

GEESAT-5 031 65552U 25201C   26145.02126257  .00001184  00000+0  16747-3 0  99972 65552  49.9855 146.8203 0010654 175.6989 184.4042 14.84082872 38356

JSON: /api/v1/satellites/65552 · /tle

For live sub-satellite position, see the globe view (requires WebGL).

§ Visibility from observer

Set your observer location to see the next 7 days of passes ≥ 10°. The values pass through the URL so the page stays shareable.

No JS? Fill the form by hand. The geolocation button needs JavaScript.